Regional Weather Roundup
Issued by NWS

Home | Current Version | Previous Version | Text Only | Print | Product List | Glossary On
Versions: 1 2 3 4 5 6 7 8 9 10 11 12 13 14 15 16 17 18 19 20 21 22 23 24 25 26 27 28 29 30 31 32 33 34 35 36 37 38 39 40 41 42 43 44 45 46 47 48 49 50
021
ASUS45 KBOU 222207
RWRCO

WEATHER ROUNDUP FOR COLORADO
NATIONAL WEATHER SERVICE DENVER/BOULDER CO
400 PM MDT MON MAY 22 2017

NOTE: "FAIR" INDICATES FEW OR NO CLOUDS BELOW 12000 FEET WITH NO
SIGNIFICANT WEATHER AND/OR OBSTRUCTIONS TO VISIBILITY.

COZ001>005-013-030-031-222300-
...NORTHWEST COLORADO...

CITY           SKY/WX    TMP DP  RH WIND       PRES   REMARKS
CRAIG          PTSUNNY   60  38  43 W15G23    30.16F
HAYDEN         CLOUDY    50  37  62 NE14      30.18F
MEEKER         PTSUNNY   63  33  32 W13G22    30.18F
RABBIT EARS PA TSTM      32  32 100 W7G18     30.30F VSB 1   WCI  26
STEAMBOAT SPGS CLOUDY    45  38  75 S7        30.21S
WALDEN           N/A     45  32  61 N3        30.21F
$$

COZ006>008-011-222300-
...WEST CENTRAL VALLEYS...

CITY           SKY/WX    TMP DP  RH WIND       PRES   REMARKS
GRAND JUNCTION FAIR      74  28  18 W16G25    30.10F
MONTROSE       FAIR      69  18  14 N14G22    30.17F
EAGLE          CLOUDY    61  27  27 NW18      30.17F
RIFLE          CLOUDY    68  27  21 W16G22    30.13F
DELTA          FAIR      74  27  17 NW14      30.13S
NUCLA          FAIR      70  23  17 NW15      30.19F
$$

COZ017>023-064>068-222300-
...SOUTHWEST COLORADO...

CITY           SKY/WX    TMP DP  RH WIND       PRES   REMARKS
DURANGO        FAIR      70  26  19 SW20G30   30.08F
CORTEZ         FAIR      68  29  23 N16       30.14F
PAGOSA SPRINGS LGT RAIN  64  24  21 SW14G21   30.14F
TELLURIDE      PTSUNNY   53  23  30 NW5       30.30F
WOLF CREEK PAS PTSUNNY   41  27  56 S9G18     30.40F
$$

COZ009-010-012-014-032>034-037-058>063-222300-
...CENTRAL COLORADO...

CITY           SKY/WX    TMP DP  RH WIND       PRES   REMARKS
ASPEN          CLOUDY    56  25  30 VRB7G18   30.19F
BUENA VISTA    CLOUDY    56  24  28 W18       30.18F
COPPER MTN     CLOUDY    37  25  60 NW16G30   30.34F
BERTHOUD PASS  CLOUDY    25  14  63 NW33G41   30.31S WCI   7
COTTONWOOD PAS FAIR      55  25  30 NW3       30.26F
GUNNISON       FAIR      60  26  27 NW17      30.19S
KREMMLING      CLOUDY    55  30  38 NW14      30.22R
LEADVILLE      LGT RAIN  41  30  65 NW10G22   30.28F
MONARCH PASS   PTSUNNY   36  21  55 NW21G28   30.46S
SALIDA         PTSUNNY   65  17  16 NW14      30.21F
SUNLIGHT       CLOUDY    37  21  52 W10G25    30.37S
WILKERSON PASS PTSUNNY   39  23  52 W9G16     30.33S
$$

COZ069>075-222300-
...SAN LUIS VALLEY/SANGRE DE CRISTO MOUNTAINS...

CITY           SKY/WX    TMP DP  RH WIND       PRES   REMARKS
ALAMOSA        LGT RAIN  65  32  29 SW10G20   30.11F
DEL NORTE      FAIR      64  20  18 CALM      30.13F
LA VETA PASS   PTSUNNY   43  34  70 MISG      30.36F
SAGUACHE       FAIR      63  23  22 NW22G32   30.15F
$$

COZ035-036-038>040-222300-
...NORTHERN COLORADO FRONT RANGE...

CITY           SKY/WX    TMP DP  RH WIND       PRES   REMARKS
DENVER INTL AP LGT RAIN  54  41  61 N29G49    30.09R
DMNS CITY PARK   N/A     64  28  25 N20       30.06R
AURORA         PTSUNNY   63  27  26 NW13      30.07F
FRONT RANGE AP PTSUNNY   63  37  39 N41G52    30.08S
ERIE MUNI ARPT CLOUDY    62  31  32 N13G18    30.09R
BOULDER MUN AP CLOUDY    61  32  33 W12       30.08R
CENTENNIAL     PTSUNNY   63  29  27 NW17G23   30.07F
BROOMFIELD     PTSUNNY   63  30  29 W17G29    30.09R
FORT COLLINS   FAIR      50  41  71 NE21      30.12R
LONGMONT       CLOUDY    59  40  49 NE21G40   30.12R
$$

COZ041-046-047-076>085-087-088-222300-
...PIKES PEAK/PALMER DIVIDE AND SOUTHERN FOOTHILLS...

CITY           SKY/WX    TMP DP  RH WIND       PRES   REMARKS
COLO. SPRINGS  PTSUNNY   65  27  23 W8        30.10F
A. F. ACADEMY  PTSUNNY   59  27  29 NW5       30.09F
SCHRIEVER AFB  PTSUNNY   61  27  28 W16G25    30.10F
CHEYENNE MTN   PTSUNNY   56  27  32 SE8G18    30.07F
ELLICOTT       FAIR     N/A N/A N/A CALM      30.08F
FALCON         FAIR      61  25  25 NW9G21    30.13F
FORT CARSON    FAIR      62  34  35 S8        30.08F
LIMON          FAIR      64  34  32 N13G22    30.05F
MONUMENT HILL  PTSUNNY   54  28  37 NW5       30.14F
CANON CITY     NOT AVBL
WALSENBURG     FAIR      64  41  42 CALM      30.09F
TRINIDAD       PTSUNNY   65  35  33 NE8       30.09F
$$

COZ042>045-048>051-090-091-222300-
...NORTHEAST COLORADO...

CITY           SKY/WX    TMP DP  RH WIND       PRES   REMARKS
GREELEY ARPT   PTSUNNY   49  41  74 N24G39    30.14R
AKRON          RAIN      48  44  86 N18       30.10R FOG
BURLINGTON     FAIR      67  38  34 NW10      30.00F
WRAY           PTSUNNY   64  37  36 N20G26    30.00F
YUMA           LGT RAIN  54  32  43 W6        30.03R
STERLING       PTSUNNY   54  39  58 N31G41    30.09R
HOLYOKE        NOT AVBL
FORT MORGAN    CLOUDY    52  40  64 N31G41    30.11R
$$

COZ086-089-092>099-222300-
...SOUTHEAST COLORADO...

CITY           SKY/WX    TMP DP  RH WIND       PRES   REMARKS
PUEBLO         PTSUNNY   68  40  35 NE8       30.03F
LA JUNTA       FAIR      70  43  37 W9        30.03F
LAMAR          FAIR      69  46  43 W12       29.99F
SPRINGFIELD    NOT AVBL
$$




USA.gov is the U.S. government's official web portal to all federal, state and local government web resources and services.